Location: Goodsell Observatory
(44.4617°N, 93.1522°W)
Time: 10:07:15
(UTC-05:00)

Daily predictions for brighter satellites

Satellite Brightness Start Highest point End
(mag) Time Altitude Azimuth Time Altitude Azimuth Time Altitude Azimuth
Cosmos 1939 Rocket 3.2 21:15:23 10° SSE 21:19:27 56° ENE 21:23:30 10° N
H-2A R/B 4.1 21:18:31 10° S 21:22:17 42° W 21:26:05 10° NNW
Cosmos 1346 Rocket 4.1 21:27:52 10° SE 21:30:53 22° E 21:33:58 10° NE
Cosmos 1992 Rocket 4.1 21:26:50 10° NNW 21:32:05 71° ENE 21:37:17 10° SSE
SeaSat 1 2.8 21:35:50 10° SE 21:40:38 54° ENE 21:45:28 10° NNW
ARGOS 4.1 21:37:00 10° SE 21:41:49 34° ENE 21:46:38 10° N
USA 81 4.4 21:36:56 10° N 21:42:05 50° E 21:47:13 10° SSE
COSMOS 2455 2.9 21:36:45 10° SSW 21:42:45 89° SE 21:48:48 10° NNE
ALOS 4.3 21:43:31 10° SSW 21:47:24 26° W 21:51:19 10° NW
ISS -2.9 21:45:46 10° WSW 21:49:01 67° NNW 21:52:17 10° NE
MetOp-B 4.3 21:45:32 10° SSE 21:50:49 65° ENE 21:56:09 10° N
CZ-4B R/B 3.9 21:49:00 10° NNE 21:53:56 46° E 21:58:56 10° S
Cosmos 2369 Rocket 2.2 21:48:16 10° NNW 21:53:58 86° ENE 21:59:14 12° SSE
BREEZE-M DEB (TANK) 4.5 21:55:22 10° WSW 21:55:54 11° SW 21:56:26 10° SW
Cosmos 1190 Rocket 4.1 21:54:22 10° S 21:59:35 63° ESE 22:04:52 10° NNE
Cosmos 1825 Rocket 3.6 21:55:46 10° S 22:00:10 68° E 22:04:35 10° NNE
Cosmos 1766 4.2 21:56:37 10° N 22:00:19 35° ENE 22:03:02 16° SE
CZ-4 R/B 4.5 22:00:23 10° NNE 22:05:07 40° E 22:09:21 12° SSE
PSLV R/B 3.7 22:02:20 10° WSW 22:05:45 48° S 22:08:16 17° ESE
H-2A R/B 3.2 22:04:51 13° ESE 22:08:20 28° ENE 22:12:37 10° N
ATLAS 3B R/B 2.9 22:01:19 10° SSW 22:08:58 71° ESE 22:16:27 10° NE
YAOGAN 6 2.7 22:06:29 16° SSE 22:09:25 70° ENE 22:13:10 10° N
SPOT 5 3.2 22:11:53 10° S 22:16:09 53° W 22:20:23 10° NNW
Cosmos 676 Rocket 4.2 22:11:44 10° S 22:16:54 54° ESE 22:22:06 10° NNE
UNK 4.3 22:11:45 10° NNE 22:17:15 88° ESE 22:23:01 10° SSW
SPOT 1/Viking Rocket 3.5 22:12:55 15° SSE 22:17:17 80° ENE 22:22:27 10° NNW
Terra 3.0 22:14:42 16° ESE 22:17:40 29° ENE 22:21:45 10° N
H-2A R/B 4.1 22:15:50 10° SSW 22:19:23 25° W 22:23:01 10° NW
Lacrosse 4 Rocket 1.3 22:16:26 10° SSW 22:20:30 89° E 22:24:37 10° NNE
Cosmos 2084 3.8 22:17:48 10° NNW 22:21:51 54° NE 22:24:37 20° ESE
Cosmos 2263 4.3 22:21:37 10° NNW 22:27:13 73° WSW 22:31:28 18° SSE
USA 234 3.3 22:21:50 16° ESE 22:27:19 82° NE 22:33:55 10° NW
Lacrosse 5 4.3 22:24:03 10° NW 22:27:46 20° N 22:31:29 10° NE
Cosmos 1805 4.4 22:24:49 10° NNE 22:28:20 30° ENE 22:29:59 22° ESE
BREEZE-M DEB (TANK) 2.1 22:25:48 10° WSW 22:28:52 67° NNW 22:30:53 10° ENE
COSMOS 2406 3.7 22:33:42 19° SSE 22:37:14 39° ESE 22:42:32 10° NE
CZ-4C R/B 3.3 22:38:41 26° SSE 22:40:58 78° ENE 22:44:57 10° N
USA 245 4.4 22:36:14 15° S 22:40:59 64° WSW 22:45:46 10° NNW
Atlas Centaur 2 3.9 22:36:54 10° WSW 22:42:57 27° S 22:46:02 21° SSE
Cosmos 407 Rocket 3.8 22:39:10 10° SSW 22:44:24 68° WNW 22:49:36 10° NNE
SL-8 R/B 3.8 22:41:24 10° WNW 22:46:15 78° NNE 22:49:39 20° ESE
SL-27 R/B 2.3 22:45:17 34° S 22:46:31 62° ESE 22:49:50 10° NNE
Cosmos 1943 Rocket 2.1 22:41:32 10° NNW 22:47:08 89° WSW 22:50:26 26° SSE
Cosmos 1953 Rocket 4.4 22:44:01 10° SSW 22:48:18 50° WNW 22:52:39 10° N
Cosmos-2242 3.0 22:44:56 10° N 22:49:22 80° E 22:51:34 29° SSE
COSMOS 2487 4.1 22:54:06 21° E 22:54:06 21° E 22:56:29 10° NE
USA 238 DEB 3.8 22:47:04 10° SSW 22:54:02 61° ESE 23:00:58 10° NE
USA 238 3.8 22:47:11 10° SSW 22:54:08 61° ESE 23:01:04 10° NE
Cosmos 1953 2.2 22:50:45 10° N 22:54:45 76° E 22:56:18 36° SSE
Cosmos 1656 Rocket 4.0 22:50:18 10° NNW 22:55:55 55° ENE 22:58:57 26° SE
Cosmos 1943 4.5 22:51:20 10° SW 22:56:42 42° WNW 23:02:08 10° NNE
Lacrosse 5 rocket 4.3 22:54:54 10° NNW 22:57:11 14° N 22:59:33 10° NE
Kosmos-1675 3.9 22:57:02 18° SSW 22:59:20 79° ESE 23:09:58 10° NE
SL-08 RB Rocket 4.1 22:57:30 23° S 23:00:11 58° W 23:04:39 10° NNW
Cosmos 1707 4.4 23:01:37 19° E 23:01:44 19° E 23:04:33 10° NE
Cosmos 1954 Rocket 4.1 23:00:05 10° SSW 23:05:23 77° WNW 23:10:43 10° NNE
Cosmos 2279 Rocket 4.4 22:59:39 10° NNW 23:05:49 62° W 23:10:20 19° SSW
Cosmos 1607 4.0 23:01:39 17° S 23:06:21 55° ESE 23:12:25 10° NE
Cosmos 1932 4.4 23:05:23 10° SW 23:11:34 85° NW 23:17:51 10° NE
Cosmos 1842 3.9 23:10:38 22° SSW 23:12:59 52° WNW 23:16:49 10° N
Cosmos 2208 Rocket 3.9 23:08:32 10° NNW 23:13:45 89° WSW 23:15:59 35° SSE
CZ-4C R/B 3.0 23:17:09 29° ESE 23:17:35 29° ESE 23:22:33 10° NE
SeaSat 1 4.2 23:15:27 14° SSW 23:18:25 22° WSW 23:22:15 10° NW
ARGOS 4.3 23:18:21 17° SSW 23:21:59 36° W 23:26:58 10° NNW
CARTOSAT-1 3.8 23:22:12 35° SSW 23:23:48 61° WSW 23:28:07 10° NNW
Cosmos 1733 3.8 23:21:24 10° N 23:25:06 40° ENE 23:25:34 38° E
Okean 3 Rocket 3.9 23:24:56 41° ESE 23:25:42 46° E 23:29:57 10° NNE
ISS -0.9 23:23:08 10° WNW 23:25:53 24° N 23:28:38 10° NE
NOSS 3-2 (C) 4.1 23:27:22 32° SE 23:28:31 34° ESE 23:34:20 10° NE
Cosmos 1741 Rocket 3.9 23:25:43 28° SSW 23:28:35 85° ESE 23:33:57 10° NNE
Geosat 4.0 23:24:57 10° NNE 23:30:01 80° WNW 23:33:39 19° SW
Cosmos 2369 Rocket 4.5 23:34:23 10° WNW 23:37:09 14° W 23:39:54 10° SW
Cosmos 1850 Rocket 4.2 23:41:30 24° SW 23:44:42 68° WNW 23:49:55 10° NNE
H-2A R/B 2.9 23:45:29 27° SW 23:47:35 39° W 23:52:22 10° NNW
ALOS 2 4.0 23:48:45 25° E 23:49:48 27° ENE 23:53:31 10° N
Meteor 2-5 Rocket 3.7 23:48:37 39° S 23:50:54 81° E 23:56:40 10° NNE
Cosmos 1842 Rocket 4.4 23:47:05 10° NNW 23:51:15 43° W 23:52:32 34° SW
Cosmos 2369 4.5 23:45:52 10° NNW 23:51:17 44° ENE 23:53:43 28° ESE
Cosmos 1140 Rocket 4.4 23:47:14 14° SW 23:51:31 47° WNW 23:56:36 10° N
Cosmos 1340 2.6 23:52:34 71° SW 23:52:54 80° W 23:56:44 10° N
Terra 3.0 23:53:34 26° SW 23:55:19 33° W 23:59:38 10° NNW
